sat.trackr.live / text

‹ back to catalog

SENTINEL-2A

NORAD 40697 · 2015-028A

PAYLOAD ACTIVE UNKNOWN

§ Identity

Operator
Country
ESA
Launch date
2015-06-23
Launch site
FRGUI
Launch vehicle
Mass (kg)
RCS (m²)
3.45

Purposes: earth_obs

External: N2YO · Heavens-Above · Gunter

§ Orbital elements

Epoch: 2026-05-25T04:59:05.497728Z

Period
100.64 min
Inclination
98.5681°
Eccentricity
0.0001075
Mean motion
14.30815553 rev/d
Perigee alt
788.2 km
Apogee alt
789.8 km
Semi-major
7,167.1 km
B*
-2.8915e-5
RAAN
220.3847°
Arg perigee
85.8110°
Mean anomaly
274.3195°
Rev number
57,044

§ Raw data

SENTINEL-2A1 40697U 15028A   26145.20770252 -.00000119  00000+0 -28915-4 0  99962 40697  98.5681 220.3847 0001075  85.8110 274.3195 14.30815553570443

JSON: /api/v1/satellites/40697 · /tle

For live sub-satellite position, see the globe view (requires WebGL).

§ Visibility from observer

Set your observer location to see the next 7 days of passes ≥ 10°. The values pass through the URL so the page stays shareable.

No JS? Fill the form by hand. The geolocation button needs JavaScript.